Preview of NWS' New Version of Forecast
This preview is not operational and should not be used for support decisions.

Regional Weather Roundup (RWR)

Issued by National Weather Service (NWS)

                            
000
ASUS43 KDMX 180101
RWRIA 

WEATHER ROUNDUP FOR IOWA
NATIONAL WEATHER SERVICE DES MOINES IA
800 PM CDT TUE SEP 17 2019

NOTE: "FAIR" INDICATES FEW OR NO CLOUDS BELOW 12,000 FEET WITH NO
SIGNIFICANT WEATHER AND/OR OBSTRUCTIONS TO VISIBILITY.

* - THESE STATIONS ARE NOT NWS STATIONS...THUS NOT UNDER NWS
QUALITY CONTROL.  THEY ALSO DO NOT REPORT WEATHER SUCH 
AS PRECIPITATION OR FOG.  

IAZ001>003-012>014-020>022-031>034-043>046-180200-
   NORTHWEST IOWA
  
CITY           SKY/WX    TMP DP  RH WIND       PRES   REMARKS
CARROLL *      CLEAR     77  70  78 SE8       29.90S                  
CHEROKEE *     CLEAR     77  69  77 S7        29.87R                  
DENISON *      CLEAR     79  70  73 SE13      29.90S HX  81           
LE MARS *      CLEAR     81  70  69 SE14      29.83S HX  84           
SHELDON *        N/A     77  72  83 SE10G16   29.84S                  
SIOUX CITY     CLEAR     81  68  64 SE12      29.83R HX  84           
SPENCER        CLEAR     80  67  64 S13       29.88R HX  82           
STORM LAKE *   CLEAR     77  70  78 S10       29.87R                  
$$
 
IAZ055>058-069>071-079>083-090>094-180200-
   SOUTHWEST IOWA
  
CITY           SKY/WX    TMP DP  RH WIND       PRES   REMARKS
ATLANTIC *     CLEAR     79  72  78 S6        29.91R HX  82           
AUDUBON *        N/A     77  70  78 S3        29.93S                  
CLARINDA *     CLEAR     81  72  74 S7        29.94S HX  84           
COUNCIL BLFS * CLEAR     82  66  57 S15       29.87S HX  85           
CRESTON *      CLEAR     77  68  73 S8        29.96S                  
HARLAN  *      CLEAR     81  70  69 S10G17    29.90S HX  84           
LAMONI         CLEAR     80  69  69 SE6       29.97S HX  83           
RED OAK *      CLEAR     79  70  73 S7        29.91S HX  81           
SHENANDOAH *   CLEAR     81  70  69 SE8       29.89S HX  84           
$$
 
IAZ047>049-059>061-072>074-084-180200-
   CENTRAL IOWA
  
CITY           SKY/WX    TMP DP  RH WIND       PRES   REMARKS
AMES           CLEAR     79  73  82 SE8       29.95S HX  82           
ANKENY *       CLEAR     81  73  78 SE7       29.96S HX  85           
BOONE *        CLEAR     79  77  94 SE9G15    29.94S HX  83           
CHARITON *     CLEAR     79  72  78 SE8       29.97S HX  82           
DES MOINES     PTCLDY    81  69  67 SE9       29.94S HX  84           
GRINNELL*      CLEAR     76  70  82 E8        30.01S                  
KNOXVILLE *    CLEAR     79  75  89 SE10      29.97S HX  82           
MARSHALLTOWN   CLEAR     75  71  87 SE12      29.98S                  
NEWTON *       CLEAR     79  75  89 SE10G17   29.97S HX  82           
PELLA *        CLEAR     79  71  75 SE6       29.99S HX  82           
PERRY *        FAIR      77  68  75 SE6       29.93S                  
$$
 
IAZ004>006-015-016-023>025-035-036-180200-
   NORTH CENTRAL IOWA
  
CITY           SKY/WX    TMP DP  RH WIND       PRES   REMARKS
ALGONA *       CLEAR     79  70  73 SE13      29.90S HX  81           
CLARION *      CLEAR     79  73  83 SE12G18   29.94S HX  82           
ESTHERVILLE    CLEAR     76  67  73 SE15      29.88S                  
FORT DODGE *   CLEAR     81  67  62 SE9       29.93S HX  83           
MASON CITY     CLEAR     76  70  82 SE13      29.97S                  
FOREST CITY *  FAIR      79  72  78 SE13G20   29.94S HX  82           
IOWA FALLS *     N/A     77  69  75 SE9G16    29.99S                  
$$

IAZ007>011-017>019-026>030-037>042-050>054-066-180200-
   NORTHEAST IOWA
  
CITY           SKY/WX    TMP DP  RH WIND       PRES   REMARKS
CEDAR RAPIDS   FAIR      72  67  84 SE8       30.02S                  
CHARLES CITY * FAIR      73  68  83 SE12G21   30.00S                  
CLINTON *      FAIR      70  67  90 SE8       30.07S                  
DECORAH *      FAIR      70  66  88 SE8       30.01F                  
DUBUQUE        FAIR      69  67  93 SE7       30.07S                  
MONTICELLO *   FAIR      72  72 100 SE6       30.04S                  
OELWEIN *      CLEAR     70  70 100 SE10      30.03S                  
WATERLOO       FAIR      77  67  71 SE8       29.99S                  
$$
 
IAZ064-065-067-068-078-180200-
   EAST CENTRAL IOWA
  
CITY           SKY/WX    TMP DP  RH WIND       PRES   REMARKS
DAVENPORT      FAIR      72  66  81 E9        30.06F                  
IOWA CITY      FAIR      75  66  73 SE5       30.03S                  
MUSCATINE *    FAIR      75  68  78 SE5       30.03S                  
QUAD CITIES    FAIR      70  67  90 E7        30.05S                  
$$
 
IAZ062-063-075>077-085>089-095>099-180200-
   SOUTHEAST IOWA
  
CITY           SKY/WX    TMP DP  RH WIND       PRES   REMARKS
BURLINGTON     CLEAR     77  67  71 SE6       30.03S                  
FAIRFIELD *    CLEAR     73  70  88 SE7       30.02S                  
FORT MADISON * CLEAR     73  70  88 E5        30.04R                  
KEOKUK *       CLEAR     75  72  88 E8        30.02S                  
OSKALOOSA *    FAIR      76  69  77 SE9       30.00S                  
OTTUMWA        CLEAR     77  71  82 SE8       30.00R                  
WASHINGTON *     N/A    N/A N/A N/A MISG        N/A                   
$$

ABBREVIATIONS USED IN REMARKS
   TC - TEMPERATURES IN CELSIUS
  WCI - WIND CHILL INDEX
   HX - HEAT INDEX
  VSB - VISIBILITY  
$$